BAW2065 HTZA-EGKK

Flight info

Callsign BAW2065
Flight time N/A
Altitude 36000
Route DCT EGPET UT913 GABSO UL445 NV UA727 NAK UM304 EPLAS P568 KUNDI/N0485F380 P568 ORNAT B21 KARUB/N0479F400 B21 INDOT DCT VESOD DCT TADIX DCT TAGEL DCT TIMOV DCT BIBNO DCT ABESI DCT BEGAR DCT SUTAL N852 DIK M624 BUB L608 DENUT L610 TEBRA TEBRA2G
Aircraft B772/H-SDE2E3FGHIJ5LORVWXY/LB1D1

Departure

Time 2026-05-04 00:14
Airport Abeid Amani Karume International Airport (HTZA)

Arrival

Time N/A
Airport London Gatwick Airport (EGKK)
Time Latitude Longitude Altitude Speed Heading
2026-05-03 23:44 -6.21821 39.22205 55 ft 0 kts 264°
2026-05-04 00:03 -6.21821 39.22218 62 ft 3 kts 293°
2026-05-04 00:03 -6.21833 39.22234 55 ft 3 kts 338°
2026-05-04 00:03 -6.21850 39.22237 56 ft 0 kts 20°
2026-05-04 00:07 -6.21853 39.22236 56 ft 0 kts 27°
2026-05-04 00:07 -6.21849 39.22238 56 ft 2 kts 27°
2026-05-04 00:07 -6.21836 39.22245 55 ft 2 kts 30°
2026-05-04 00:08 -6.21824 39.22253 62 ft 2 kts 33°
2026-05-04 00:08 -6.21812 39.22262 55 ft 2 kts 38°
2026-05-04 00:08 -6.21796 39.22276 57 ft 6 kts 42°
2026-05-04 00:08 -6.21761 39.22306 55 ft 7 kts 28°
2026-05-04 00:09 -6.21705 39.22310 56 ft 10 kts 351°
2026-05-04 00:09 -6.21638 39.22309 55 ft 10 kts
2026-05-04 00:09 -6.21570 39.22305 57 ft 10 kts 353°
2026-05-04 00:09 -6.21510 39.22322 57 ft 10 kts 58°
2026-05-04 00:10 -6.21495 39.22386 58 ft 9 kts 78°
2026-05-04 00:10 -6.21444 39.22413 60 ft 9 kts 355°
2026-05-04 00:10 -6.21379 39.22407 59 ft 9 kts 355°
2026-05-04 00:10 -6.21315 39.22402 59 ft 9 kts 355°
2026-05-04 00:11 -6.21240 39.22396 59 ft 12 kts 355°
2026-05-04 00:11 -6.21158 39.22359 59 ft 14 kts 332°
2026-05-04 00:11 -6.21114 39.22376 59 ft 6 kts 84°
2026-05-04 00:11 -6.21144 39.22394 62 ft 6 kts 192°
2026-05-04 00:12 -6.21183 39.22389 59 ft 6 kts 175°
2026-05-04 00:12 -6.21207 39.22391 58 ft 0 kts 175°
2026-05-04 00:13 -6.21239 39.22394 58 ft 20 kts 175°
2026-05-04 00:13 -6.21604 39.22430 62 ft 85 kts 174°
2026-05-04 00:13 -6.22403 39.22510 53 ft 143 kts 174°
2026-05-04 00:14 -6.23540 39.22626 207 ft 173 kts 173°
2026-05-04 00:14 -6.24729 39.22789 880 ft 179 kts 173°
2026-05-04 00:14 -6.26036 39.22974 1509 ft 191 kts 173°
2026-05-04 00:14 -6.27375 39.23211 2192 ft 206 kts 169°
2026-05-04 00:15 -6.28888 39.23523 2583 ft 231 kts 167°
2026-05-04 00:15 -6.30425 39.23932 3320 ft 232 kts 159°
2026-05-04 00:15 -6.31723 39.24964 3586 ft 252 kts 122°
2026-05-04 00:15 -6.32142 39.26702 4105 ft 267 kts 86°
2026-05-04 00:16 -6.31455 39.28460 4743 ft 279 kts 52°
2026-05-04 00:16 -6.29864 39.29597 5423 ft 287 kts 19°
2026-05-04 00:16 -6.27893 39.29742 6066 ft 289 kts 351°
2026-05-04 00:16 -6.25906 39.29257 6602 ft 297 kts 344°
2026-05-04 00:17 -6.23907 39.28683 7253 ft 298 kts 346°
2026-05-04 00:17 -6.21880 39.28188 7945 ft 299 kts 349°
2026-05-04 00:17 -6.19851 39.27813 8605 ft 301 kts 353°
2026-05-04 00:17 -6.17759 39.27609 9265 ft 302 kts
2026-05-04 00:18 -6.15654 39.27723 9862 ft 302 kts 10°
2026-05-04 00:18 -6.13594 39.28119 9953 ft 305 kts 17°
2026-05-04 00:18 -6.11530 39.28746 10037 ft 318 kts 21°
2026-05-04 00:18 -6.09393 39.29550 10193 ft 337 kts 24°
2026-05-04 00:19 -6.07169 39.30487 10311 ft 355 kts 26°
2026-05-04 00:19 -6.04846 39.31525 10510 ft 372 kts 26°
2026-05-04 00:19 -6.02456 39.32624 10950 ft 381 kts 27°
2026-05-04 00:19 -6.00060 39.33739 11570 ft 386 kts 27°
2026-05-04 00:20 -5.97618 39.34878 12364 ft 387 kts 27°
2026-05-04 00:20 -5.95156 39.36026 13207 ft 388 kts 27°
2026-05-04 00:20 -5.92695 39.37173 13940 ft 391 kts 27°
2026-05-04 00:20 -5.90215 39.38228 14451 ft 394 kts 18°
2026-05-04 00:21 -5.87447 39.38480 14925 ft 408 kts 356°
2026-05-04 00:21 -5.84664 39.37767 15581 ft 417 kts 338°
2026-05-04 00:21 -5.82113 39.36370 16141 ft 419 kts 332°
2026-05-04 00:21 -5.79604 39.34866 16655 ft 427 kts 331°
2026-05-04 00:22 -5.77044 39.33313 17375 ft 430 kts 331°
2026-05-04 00:22 -5.74475 39.31755 18102 ft 432 kts 331°
2026-05-04 00:22 -5.71869 39.30184 18689 ft 437 kts 331°
2026-05-04 00:22 -5.69236 39.28609 19232 ft 441 kts 331°
2026-05-04 00:23 -5.66612 39.27048 19796 ft 445 kts 331°
2026-05-04 00:23 -5.63928 39.25457 20383 ft 449 kts 331°
2026-05-04 00:23 -5.61222 39.23857 20967 ft 452 kts 331°
2026-05-04 00:23 -5.58508 39.22254 21518 ft 456 kts 331°
2026-05-04 00:24 -5.55773 39.20639 22048 ft 460 kts 331°
2026-05-04 00:24 -5.52988 39.18996 22555 ft 464 kts 330°
2026-05-04 00:24 -5.50181 39.17339 23070 ft 468 kts 330°
2026-05-04 00:24 -5.47389 39.15691 23529 ft 472 kts 331°
2026-05-04 00:25 -5.44538 39.14008 23896 ft 476 kts 331°
2026-05-04 00:25 -5.41677 39.12319 24356 ft 477 kts 331°
2026-05-04 00:25 -5.38807 39.10625 24815 ft 478 kts 330°
2026-05-04 00:25 -5.35925 39.08925 25207 ft 481 kts 330°
2026-05-04 00:26 -5.33069 39.07240 25542 ft 484 kts 330°
2026-05-04 00:26 -5.30149 39.05516 25892 ft 486 kts 330°
2026-05-04 00:26 -5.27210 39.03783 26230 ft 489 kts 330°
2026-05-04 00:26 -5.24267 39.02047 26595 ft 491 kts 330°
2026-05-04 00:27 -5.21343 39.00323 26926 ft 493 kts 330°
2026-05-04 00:27 -5.18375 38.98572 27243 ft 496 kts 331°
2026-05-04 00:27 -5.15373 38.96803 27576 ft 498 kts 331°
2026-05-04 00:27 -5.12410 38.95056 27876 ft 500 kts 331°
2026-05-04 00:28 -5.09393 38.93277 28169 ft 502 kts 331°
2026-05-04 00:28 -5.06362 38.91490 28443 ft 504 kts 331°
2026-05-04 00:28 -5.03332 38.89704 28704 ft 506 kts 331°
2026-05-04 00:28 -5.00308 38.87922 28953 ft 508 kts 331°
2026-05-04 00:29 -4.97254 38.86122 29185 ft 510 kts 331°
2026-05-04 00:29 -4.94183 38.84312 29408 ft 512 kts 331°
2026-05-04 00:29 -4.91143 38.82519 29607 ft 514 kts 331°
2026-05-04 00:29 -4.88056 38.80701 29815 ft 515 kts 331°
2026-05-04 00:30 -4.84964 38.78870 30082 ft 515 kts 330°
2026-05-04 00:30 -4.81897 38.77007 30329 ft 514 kts 330°
2026-05-04 00:30 -4.78845 38.75127 30584 ft 514 kts 329°
2026-05-04 00:30 -4.75804 38.73244 30858 ft 513 kts 329°
2026-05-04 00:31 -4.72761 38.71361 31116 ft 512 kts 329°
2026-05-04 00:31 -4.69758 38.69508 31381 ft 511 kts 329°
2026-05-04 00:31 -4.66714 38.67634 31627 ft 510 kts 329°
2026-05-04 00:31 -4.64707 38.66401 31776 ft 510 kts 329°
2026-05-04 00:32 -4.60692 38.63937 32124 ft 509 kts 329°
2026-05-04 00:32 -4.58646 38.62682 32309 ft 508 kts 329°
2026-05-04 00:32 -4.55651 38.60845 32562 ft 507 kts 329°
2026-05-04 00:32 -4.51653 38.58394 32850 ft 507 kts 329°
2026-05-04 00:33 -4.49617 38.57145 32996 ft 507 kts 329°
2026-05-04 00:33 -4.43636 38.53476 33512 ft 504 kts 329°
2026-05-04 00:33 -4.40661 38.51652 33769 ft 503 kts 329°
2026-05-04 00:34 -4.37672 38.49819 33987 ft 503 kts 329°
2026-05-04 00:34 -4.34678 38.47983 34155 ft 503 kts 330°
2026-05-04 00:34 -4.31692 38.46152 34354 ft 502 kts 330°
2026-05-04 00:34 -4.28706 38.44322 34554 ft 502 kts 330°
2026-05-04 00:35 -4.25755 38.42513 34749 ft 501 kts 330°
2026-05-04 00:35 -4.22763 38.40679 34950 ft 501 kts 330°
2026-05-04 00:35 -4.19786 38.38854 35151 ft 500 kts 330°
2026-05-04 00:35 -4.16846 38.37052 35356 ft 500 kts 330°
2026-05-04 00:36 -4.13856 38.35220 35528 ft 500 kts 330°
2026-05-04 00:36 -4.10881 38.33396 35713 ft 500 kts 330°
2026-05-04 00:36 -4.07912 38.31576 35926 ft 500 kts 330°
2026-05-04 00:37 -4.01979 38.27939 36016 ft 502 kts 330°